Satellite: HRBE
Catalog number: 37855
Epoch time: 15092.43362617
Element set: 999
Inclination: 101.7193 deg
RA of node: 268.1972 deg
Eccentricity: 0.0198933
Arg of perigee: 294.4509 deg
Mean anomaly: 063.6061 deg
Mean motion: 14.95694207 rev/day
Decay rate: 9.439e-05 rev/day^2
Epoch rev: 18582
Checksum: 353
Satellite: RS-39
Catalog number: 38051
Epoch time: 14288.65876392
Element set: 999
Inclination: 051.5964 deg
RA of node: 324.1908 deg
Eccentricity: 0.0006422
Arg of perigee: 269.6897 deg
Mean anomaly: 186.8903 deg
Mean motion: 16.43533377 rev/day
Decay rate: 7.0201582e-01 rev/day^2
Epoch rev: 15308
Checksum: 367
Satellite: E-STAR
Catalog number: 38079
Epoch time: 15016.13455217
Element set: 999
Inclination: 069.3967 deg
RA of node: 125.0648 deg
Eccentricity: 0.0013168
Arg of perigee: 047.0341 deg
Mean anomaly: 316.5109 deg
Mean motion: 16.44007688 rev/day
Decay rate: 1.7990388e-01 rev/day^2
Epoch rev: 15619
Checksum: 340
Satellite: GOLIAT
Catalog number: 38085
Epoch time: 15047.13271005
Element set: 999
Inclination: 069.4022 deg
RA of node: 049.8202 deg
Eccentricity: 0.0017770
Arg of perigee: 344.8867 deg
Mean anomaly: 016.3100 deg
Mean motion: 16.44194733 rev/day
Decay rate: 1.5174231e-01 rev/day^2
Epoch rev: 16069
Checksum: 300
Satellite: HORYU-2
Catalog number: 38340
Epoch time: 15092.16343130
Element set: 999
Inclination: 098.3051 deg
RA of node: 060.1835 deg
Eccentricity: 0.0011669
Arg of perigee: 345.8454 deg
Mean anomaly: 014.2424 deg
Mean motion: 14.73989447 rev/day
Decay rate: 3.402e-05 rev/day^2
Epoch rev: 15433
Checksum: 297
Satellite: RS-40
Catalog number: 38735
Epoch time: 15092.82764914
Element set: 999
Inclination: 082.4726 deg
RA of node: 106.9717 deg
Eccentricity: 0.0016649
Arg of perigee: 349.2438 deg
Mean anomaly: 010.8280 deg
Mean motion: 12.42567495 rev/day
Decay rate: 4.0e-07 rev/day^2
Epoch rev: 12155
Checksum: 327
Satellite: PROITERES
Catalog number: 38756
Epoch time: 15092.80282138
Element set: 999
Inclination: 098.2162 deg
RA of node: 190.8333 deg
Eccentricity: 0.0012447
Arg of perigee: 173.1414 deg
Mean anomaly: 186.9973 deg
Mean motion: 14.75669210 rev/day
Decay rate: 1.522e-05 rev/day^2
Epoch rev: 13788
Checksum: 328
Satellite: BEESAT-3
Catalog number: 39134
Epoch time: 15092.66276340
Element set: 999
Inclination: 064.8737 deg
RA of node: 298.9426 deg
Eccentricity: 0.0033476
Arg of perigee: 260.8970 deg
Mean anomaly: 098.8869 deg
Mean motion: 15.10839531 rev/day
Decay rate: 1.6084e-04 rev/day^2
Epoch rev: 10728
Checksum: 360
Satellite: BEESAT-2
Catalog number: 39136
Epoch time: 15091.97878963
Element set: 999
Inclination: 064.8741 deg
RA of node: 302.9412 deg
Eccentricity: 0.0034322
Arg of perigee: 260.8087 deg
Mean anomaly: 098.9152 deg
Mean motion: 15.09420926 rev/day
Decay rate: 9.128e-05 rev/day^2
Epoch rev: 10715
Checksum: 335
Satellite: LO-75
Catalog number: 39382
Epoch time: 14295.69194059
Element set: 999
Inclination: 040.4713 deg
RA of node: 030.2705 deg
Eccentricity: 0.0002289
Arg of perigee: 341.7175 deg
Mean anomaly: 018.4586 deg
Mean motion: 16.19795749 rev/day
Decay rate: 7.301741e-02 rev/day^2
Epoch rev: 47082
Checksum: 353
Satellite: ZACUBE-1
Catalog number: 39417
Epoch time: 15092.18439921
Element set: 999
Inclination: 097.7380 deg
RA of node: 157.5366 deg
Eccentricity: 0.0061197
Arg of perigee: 025.5012 deg
Mean anomaly: 334.9198 deg
Mean motion: 14.79434944 rev/day
Decay rate: 2.835e-05 rev/day^2
Epoch rev: 7339
Checksum: 347
Satellite: TRITON-1
Catalog number: 39427
Epoch time: 15091.79421846
Element set: 999
Inclination: 097.7243 deg
RA of node: 147.0128 deg
Eccentricity: 0.0117256
Arg of perigee: 051.5691 deg
Mean anomaly: 309.5970 deg
Mean motion: 14.66435379 rev/day
Decay rate: 2.441e-05 rev/day^2
Epoch rev: 7267
Checksum: 337
Satellite: DELFIN3XT
Catalog number: 39428
Epoch time: 15092.75443709
Element set: 999
Inclination: 097.7240 deg
RA of node: 146.3685 deg
Eccentricity: 0.0126108
Arg of perigee: 052.9151 deg
Mean anomaly: 308.3503 deg
Mean motion: 14.65029698 rev/day
Decay rate: 4.225e-05 rev/day^2
Epoch rev: 7269
Checksum: 332
Satellite: GOMX-1
Catalog number: 39430
Epoch time: 15092.85598468
Element set: 999
Inclination: 097.7184 deg
RA of node: 141.3793 deg
Eccentricity: 0.0155556
Arg of perigee: 067.2938 deg
Mean anomaly: 294.4604 deg
Mean motion: 14.57847330 rev/day
Decay rate: 2.430e-05 rev/day^2
Epoch rev: 7240
Checksum: 345
Satellite: MO-76
Catalog number: 39436
Epoch time: 15092.73252908
Element set: 999
Inclination: 097.7524 deg
RA of node: 168.6323 deg
Eccentricity: 0.0022427
Arg of perigee: 002.3136 deg
Mean anomaly: 357.8189 deg
Mean motion: 15.02808325 rev/day
Decay rate: 3.1464e-04 rev/day^2
Epoch rev: 7414
Checksum: 330
Satellite: LO-74
Catalog number: 39440
Epoch time: 15092.46526456
Element set: 999
Inclination: 097.7327 deg
RA of node: 153.7803 deg
Eccentricity: 0.0083109
Arg of perigee: 033.4846 deg
Mean anomaly: 327.1578 deg
Mean motion: 14.74278872 rev/day
Decay rate: 2.681e-05 rev/day^2
Epoch rev: 7317
Checksum: 351
Satellite: PUCPSAT-1
Catalog number: 39442
Epoch time: 15092.18545739
Element set: 999
Inclination: 097.7455 deg
RA of node: 163.9472 deg
Eccentricity: 0.0033503
Arg of perigee: 016.5216 deg
Mean anomaly: 343.7084 deg
Mean motion: 14.88134296 rev/day
Decay rate: 4.005e-05 rev/day^2
Epoch rev: 7256
Checksum: 326
Satellite: SHINAISAT
Catalog number: 39572
Epoch time: 14328.13084988
Element set: 999
Inclination: 064.9728 deg
RA of node: 197.0096 deg
Eccentricity: 0.0013534
Arg of perigee: 259.7861 deg
Mean anomaly: 100.1802 deg
Mean motion: 16.45181032 rev/day
Decay rate: 2.8848087e-01 rev/day^2
Epoch rev: 4240
Checksum: 336
Satellite: TEIKYOSAT
Catalog number: 39576
Epoch time: 14297.85867254
Element set: 999
Inclination: 064.9818 deg
RA of node: 300.5833 deg
Eccentricity: 0.0008491
Arg of perigee: 317.3597 deg
Mean anomaly: 044.3862 deg
Mean motion: 16.45008906 rev/day
Decay rate: 9.345816e-02 rev/day^2
Epoch rev: 3769
Checksum: 372
Satellite: CO-77
Catalog number: 39577
Epoch time: 14244.78324653
Element set: 999
Inclination: 064.9920 deg
RA of node: 123.7668 deg
Eccentricity: 0.0014904
Arg of perigee: 269.7208 deg
Mean anomaly: 091.1897 deg
Mean motion: 16.43552757 rev/day
Decay rate: 1.0543803e-01 rev/day^2
Epoch rev: 2938
Checksum: 371
Satellite: SPROUT
Catalog number: 39770
Epoch time: 15092.31306614
Element set: 999
Inclination: 097.8680 deg
RA of node: 190.1942 deg
Eccentricity: 0.0011350
Arg of perigee: 091.0473 deg
Mean anomaly: 269.2050 deg
Mean motion: 14.83594997 rev/day
Decay rate: 2.534e-05 rev/day^2
Epoch rev: 4638
Checksum: 318
Satellite: POPSAT-HIP1
Catalog number: 40028
Epoch time: 15092.81471940
Element set: 999
Inclination: 097.9622 deg
RA of node: 353.0188 deg
Eccentricity: 0.0015965
Arg of perigee: 070.1191 deg
Mean anomaly: 290.1776 deg
Mean motion: 14.86650685 rev/day
Decay rate: 3.310e-05 rev/day^2
Epoch rev: 4258
Checksum: 317
Satellite: EO-80
Catalog number: 40032
Epoch time: 15092.66059133
Element set: 999
Inclination: 097.9596 deg
RA of node: 352.6156 deg
Eccentricity: 0.0013921
Arg of perigee: 066.3991 deg
Mean anomaly: 293.8686 deg
Mean motion: 14.86370662 rev/day
Decay rate: 3.290e-05 rev/day^2
Epoch rev: 4256
Checksum: 342
Satellite: VELOX-1
Catalog number: 40057
Epoch time: 15092.80124728
Element set: 999
Inclination: 098.2199 deg
RA of node: 169.6713 deg
Eccentricity: 0.0012782
Arg of perigee: 117.8165 deg
Mean anomaly: 242.4341 deg
Mean motion: 14.75470685 rev/day
Decay rate: 3.503e-05 rev/day^2
Epoch rev: 4076
Checksum: 317
Satellite: DAURIA DX 1
Catalog number: 40071
Epoch time: 15092.76069305
Element set: 999
Inclination: 098.3630 deg
RA of node: 161.0551 deg
Eccentricity: 0.0009832
Arg of perigee: 118.4703 deg
Mean anomaly: 241.7497 deg
Mean motion: 14.80219306 rev/day
Decay rate: 1.654e-05 rev/day^2
Epoch rev: 3963
Checksum: 300
Satellite: UKUBE-1
Catalog number: 40074
Epoch time: 15092.74925302
Element set: 999
Inclination: 098.3648 deg
RA of node: 161.5971 deg
Eccentricity: 0.0005959
Arg of perigee: 123.6946 deg
Mean anomaly: 236.4839 deg
Mean motion: 14.81825676 rev/day
Decay rate: 3.490e-05 rev/day^2
Epoch rev: 3966
Checksum: 351
Satellite: CHASQUI-1
Catalog number: 40117
Epoch time: 15014.73322295
Element set: 999
Inclination: 051.6189 deg
RA of node: 112.4445 deg
Eccentricity: 0.0004239
Arg of perigee: 337.2783 deg
Mean anomaly: 022.7551 deg
Mean motion: 16.34635278 rev/day
Decay rate: 7.508583e-02 rev/day^2
Epoch rev: 2336
Checksum: 310
Satellite: HODOYOSHI-1
Catalog number: 40299
Epoch time: 15092.79887463
Element set: 999
Inclination: 097.4593 deg
RA of node: 175.2794 deg
Eccentricity: 0.0014155
Arg of perigee: 041.6016 deg
Mean anomaly: 104.7027 deg
Mean motion: 15.18622414 rev/day
Decay rate: 6.768e-05 rev/day^2
Epoch rev: 2237
Checksum: 332
Satellite: CHUBUSAT-1
Catalog number: 40300
Epoch time: 15092.79513321
Element set: 999
Inclination: 097.4564 deg
RA of node: 174.7890 deg
Eccentricity: 0.0023400
Arg of perigee: 040.0263 deg
Mean anomaly: 108.2374 deg
Mean motion: 15.16825321 rev/day
Decay rate: 7.821e-05 rev/day^2
Epoch rev: 2234
Checksum: 275
Satellite: QSAT-EOS
Catalog number: 40301
Epoch time: 15092.79145938
Element set: 999
Inclination: 097.4532 deg
RA of node: 174.2807 deg
Eccentricity: 0.0033721
Arg of perigee: 039.0579 deg
Mean anomaly: 109.2016 deg
Mean motion: 15.15574899 rev/day
Decay rate: 1.4174e-04 rev/day^2
Epoch rev: 2231
Checksum: 312
Satellite: TSUBAME
Catalog number: 40302
Epoch time: 15092.83461806
Element set: 999
Inclination: 097.4504 deg
RA of node: 173.6615 deg
Eccentricity: 0.0044748
Arg of perigee: 039.8582 deg
Mean anomaly: 320.5870 deg
Mean motion: 15.12110891 rev/day
Decay rate: 6.276e-05 rev/day^2
Epoch rev: 2228
Checksum: 306
